Regional Weather Roundup
Issued by NWS Jackson, KY

Home | Current Version | Previous Version | Graphics & Text | Print | Product List | Glossary On
Versions: 1 2 3 4 5 6 7 8 9 10 11 12 13 14 15 16 17 18 19 20 21 22 23 24 25 26 27
000
ASUS43 KJKL 210010
RWRJKL

EAST KENTUCKY HOURLY WEATHER ROUNDUP
NATIONAL WEATHER SERVICE JACKSON KY
700 PM EST MON FEB 20 2017

NOTE: "FAIR" INDICATES FEW OR NO CLOUDS BELOW 12,000 FEET WITH
NO SIGNIFICANT WEATHER AND/OR OBSTRUCTIONS TO VISIBILITY.

* THESE REPORTS ARE NOT UNDER NWS QUALITY CONTROL AND MAY NOT
  REPORT WEATHER SUCH AS PRECIPITATION AND FOG.

KYZ079-080-083-085-087-088-110-112-115-119-120-210100
...EASTERN KENTUCKY...

CITY           SKY/WX    TMP DP  RH WIND       PRES   REMARKS
JACKSON        MOCLDY    64  34  32 NE3       30.13R
6HR MIN TEMP:  63; 6HR MAX TEMP:  70;

LONDON         CLOUDY    60  36  40 NE3       30.11F
6HR MIN TEMP:  60; 6HR MAX TEMP:  70;

SOMERSET*      MOCLDY    61  39  44 CALM      30.10F
MONTICELLO*    CLOUDY    61  46  57 N13       30.11S
6HR MIN TEMP:  60; 6HR MAX TEMP:  72;

WILLIAMSBURG*  CLOUDY    63  39  42 SE6       30.12S
MIDDLESBORO*   CLOUDY    57  44  61 CALM      30.13S
6HR MIN TEMP:  57; 6HR MAX TEMP:  70;

HARLAN APT*    PTCLDY    63  32  31 CALM      30.13S
PIKE CO APT*     N/A     61  34  37 NE5       30.13S
BIG SANDY APT* PTCLDY    61  37  40 NE3       30.13S
6HR MIN TEMP:  60; 6HR MAX TEMP:  70;

MOREHEAD APT*  CLOUDY    61  41  48 E5        30.14S
ASHLAND*       CLOUDY    54  43  66 CALM      30.13R
$$

KYZ035-036-041-042-044-050-067-078-099-210100
...CENTRAL KENTUCKY...

CITY           SKY/WX    TMP DP  RH WIND       PRES   REMARKS
MT STERLING*   PTCLDY    59  45  58 E3        30.13F
FLEMING/MASON* PTCLDY    54  42  63 E5        30.15S
DANVILLE*      PTCLDY    59  43  55 CALM      30.11S
LEXINGTON      PTCLDY    65  37  35 E6        30.10F
6HR MIN TEMP:  64; 6HR MAX TEMP:  71;

FRANKFORT      PTCLDY    61  44  53 E6        30.08F
6HR MIN TEMP:  61; 6HR MAX TEMP:  72;

LOUISVILLE     CLOUDY    66  42  41 SE6       30.06S
6HR MIN TEMP:  62; 6HR MAX TEMP:  74;

LEBANON*         N/A     63  41  45 SE6       30.09S
GLASGOW*       PTCLDY    63  46  52 CALM      30.07S
BOWLING GREEN  CLOUDY    62  45  53 CALM      30.06S
6HR MIN TEMP:  61; 6HR MAX TEMP:  76;

$$

KYZ091>093-OHZ055-061-077-WVZ005-015-034-035-042-210100
...SOUTHERN OHIO/WEST VIRGINIA...

CITY           SKY/WX    TMP DP  RH WIND       PRES   REMARKS
COVINGTON      CLOUDY    59  47  64 E5        30.11S
COLUMBUS       CLOUDY    56  41  57 E7        30.15S
DAYTON         CLOUDY    55  39  54 E8        30.13F
WILMINGTON     CLOUDY    54  40  59 E7        30.14S
HUNTINGTON     CLOUDY    58  36  43 E6        30.13F
CHARLESTON     CLOUDY    59  38  45 CALM      30.14F
PINEVILLE*     CLOUDY    51  35  54 MISG      30.20R
BECKLEY        CLOUDY    57  21  24 SE5       30.17S
BLUEFIELD      PTCLDY    57  29  34 E3        30.19S
LOGAN CO APT*    N/A     61  37  41 CALM      30.14F
$$

VAZ002-007-008-TNZ017-027-036-066-071-210100
...SOUTHWEST VIRGINIA/EAST TENNESSEE...

CITY           SKY/WX    TMP DP  RH WIND       PRES   REMARKS
WISE*          PTCLDY    63  21  20 CALM      30.17F
JONESVILLE*      N/A     55  45  67 CALM      30.15R
ABINGDON*      PTCLDY    60  40  49 CALM      30.16R
BRISTOL        MOCLDY    57  37  47 CALM      30.13S
MORRISTOWN*    PTCLDY    59  45  58 CALM      30.12S
SEVIERVILLE*   CLEAR     57  41  54 CALM      30.12R
KNOXVILLE      CLOUDY    62  43  49 N3        30.11S
LAFOLLETTE*    CLEAR     57  45  62 CALM      30.15F
OAK RIDGE      PTCLDY    60  45  57 CALM      30.12F
CROSSVILLE     CLOUDY    61  44  53 CALM      30.13S
NASHVILLE      MOCLDY    68  43  40 S6        30.06S
$$

...KEY TO REMARKS...
VSB - VISIBILITY IN MILES
WCI - WIND CHILL INDEX
HX  - HEAT INDEX

$$




USA.gov is the U.S. government's official web portal to all federal, state and local government web resources and services.